User: anonymous   Login
Location: Newark
(33.6439°N, 114.9881°W)
Time: 17:30:56
(UTC+00:00)
Language:

A-11 Canister half - Orbit

View from above orbital plane
View from above orbital plane
View from above satellite
View from above satellite

Ground track
Ground track

The orbit data is extracted from the following two-line orbital elements,

1    53U 60009E   19234.76673690 -.00000089 +00000-0 -49153-4 0  9991
2    53 047.2769 103.1577 0097851 276.4309 082.5345 12.17228879632061
Epoch (UTC): 22 August 2019 18:24:06
Eccentricity: 0.0097851
inclination: 47.2769°
perigee height: 1526 km
apogee height: 1683 km
right ascension of ascending node: 103.1577°
argument of perigee: 276.4309°
revolutions per day: 12.17228879
mean anomaly at epoch: 82.5345°
orbit number at epoch: 63206

The dashed part of the orbit path shows where the satellite is in the earth's shadow,  

DLR